Location: Montreal
(45.5000°N, 73.5833°W)
Time: 03:23:01
(UTC-04:00)

Envisat - Pass Details

Date: 14 October 2017
Orbit: 764 x 766 km, 98.2° (Epoch: 18 October)

Event Time Altitude Azimuth Distance (km) Brightness Sun altitude
Exits shadow 20:20:01 62° 89° (E) 863 2.9 -23.5°
Maximum altitude 20:20:16 63° 72° (ENE) 856 2.9 -23.5°
Drops below altitude 10° 20:25:18 10° 353° (N) 2,312 5.7 -24.4°
Sets 20:27:38 0° 350° (N) 3,242 6.5 -24.8°
